DLH44K EDDH-EGLL

Flight info

Callsign DLH44K
Flight time N/A
Altitude 38000
Route WSN5G/33 WSN N125 ITMIZ DCT PARYD DCT ABNED L980 LOGAN
Aircraft B789/H-SDE1E2E3FGHIJ2J3J4J5M1RWXY/LB1D1

Departure

Time 2026-04-23 17:59
Airport Hamburg Helmut Schmidt Airport (EDDH)

Arrival

Time N/A
Airport London Heathrow Airport (EGLL)
Time Latitude Longitude Altitude Speed Heading
2026-04-23 17:23 53.62728 9.99429 51 ft 0 kts 241°
2026-04-23 17:46 53.62760 9.99529 46 ft 0 kts 331°
2026-04-23 17:46 53.62710 9.99576 51 ft 0 kts 331°
2026-04-23 17:50 53.62711 9.99575 51 ft 1 kts 331°
2026-04-23 17:51 53.62736 9.99551 51 ft 7 kts 331°
2026-04-23 17:51 53.62793 9.99498 50 ft 11 kts 331°
2026-04-23 17:51 53.62947 9.99366 50 ft 14 kts 334°
2026-04-23 17:52 53.63010 9.99281 50 ft 9 kts 290°
2026-04-23 17:52 53.62969 9.99118 49 ft 10 kts 231°
2026-04-23 17:52 53.62918 9.99012 49 ft 14 kts 230°
2026-04-23 17:53 53.62745 9.99007 49 ft 15 kts 153°
2026-04-23 17:53 53.62650 9.99089 50 ft 16 kts 153°
2026-04-23 17:53 53.62582 9.99213 50 ft 14 kts 93°
2026-04-23 17:54 53.62596 9.99383 51 ft 15 kts 79°
2026-04-23 17:54 53.62617 9.99563 51 ft 16 kts 79°
2026-04-23 17:54 53.62635 9.99727 50 ft 0 kts 79°
2026-04-23 17:55 53.62638 9.99745 45 ft 0 kts 79°
2026-04-23 17:56 53.62661 9.99850 50 ft 8 kts 68°
2026-04-23 17:56 53.62696 9.99888 47 ft 4 kts 354°
2026-04-23 17:57 53.62709 9.99879 48 ft 0 kts 334°
2026-04-23 17:58 53.62710 9.99879 48 ft 0 kts 334°
2026-04-23 17:58 53.62844 9.99767 45 ft 51 kts 333°
2026-04-23 17:58 53.63359 9.99320 47 ft 114 kts 333°
2026-04-23 17:59 53.64228 9.98566 64 ft 163 kts 336°
2026-04-23 17:59 53.65205 9.97868 998 ft 138 kts 335°
2026-04-23 17:59 53.66114 9.97315 1636 ft 153 kts 337°
2026-04-23 17:59 53.67095 9.96428 2136 ft 169 kts 323°
2026-04-23 18:00 53.68116 9.95191 2549 ft 194 kts 332°
2026-04-23 18:00 53.69312 9.94198 3567 ft 188 kts 334°
2026-04-23 18:00 53.70422 9.92959 4315 ft 198 kts 312°
2026-04-23 18:00 53.71148 9.90909 4965 ft 215 kts 293°
2026-04-23 18:01 53.71236 9.88164 5039 ft 257 kts 263°
2026-04-23 18:01 53.70692 9.85251 5023 ft 263 kts 257°
2026-04-23 18:01 53.70074 9.82300 5020 ft 268 kts 257°
2026-04-23 18:01 53.69467 9.79315 5019 ft 268 kts 257°
2026-04-23 18:02 53.68886 9.76346 5023 ft 265 kts 257°
2026-04-23 18:02 53.68307 9.73386 5013 ft 266 kts 257°
2026-04-23 18:02 53.67725 9.70428 5022 ft 265 kts 258°
2026-04-23 18:02 53.67152 9.67518 5016 ft 266 kts 258°
2026-04-23 18:03 53.66567 9.64556 5017 ft 265 kts 258°
2026-04-23 18:03 53.65984 9.61608 5015 ft 266 kts 257°
2026-04-23 18:03 53.65391 9.58652 5022 ft 267 kts 255°
2026-04-23 18:03 53.64372 9.55975 5020 ft 276 kts 236°
2026-04-23 18:04 53.63238 9.53367 5144 ft 279 kts 242°
2026-04-23 18:04 53.62166 9.50702 6213 ft 274 kts 241°
2026-04-23 18:04 53.61039 9.48042 7015 ft 284 kts 239°
2026-04-23 18:04 53.59866 9.45355 7927 ft 285 kts 239°
2026-04-23 18:05 53.58693 9.42645 8820 ft 289 kts 239°
2026-04-23 18:05 53.57510 9.39883 9693 ft 293 kts 239°
2026-04-23 18:05 53.56300 9.37065 10370 ft 305 kts 238°
2026-04-23 18:05 53.55007 9.34052 10542 ft 332 kts 238°
2026-04-23 18:06 53.53600 9.30796 10873 ft 350 kts 237°
2026-04-23 18:06 53.52157 9.27482 11693 ft 352 kts 237°
2026-04-23 18:06 53.50704 9.24126 12403 ft 357 kts 237°
2026-04-23 18:06 53.49249 9.20761 13118 ft 362 kts 237°
2026-04-23 18:07 53.47800 9.17279 13836 ft 365 kts 244°
2026-04-23 18:07 53.46816 9.13370 14497 ft 364 kts 255°
2026-04-23 18:07 53.46074 9.09299 15147 ft 366 kts 256°
2026-04-23 18:07 53.45270 9.05210 15794 ft 371 kts 252°
2026-04-23 18:08 53.44610 9.02495 16225 ft 374 kts 250°
2026-04-23 18:08 53.43221 8.97148 17043 ft 378 kts 250°
2026-04-23 18:08 53.42246 8.93048 17676 ft 381 kts 251°
2026-04-23 18:08 53.41281 8.88873 18292 ft 384 kts 250°
2026-04-23 18:09 53.40290 8.84747 18796 ft 389 kts 250°
2026-04-23 18:09 53.39261 8.80543 19313 ft 391 kts 250°
2026-04-23 18:09 53.38232 8.76306 19830 ft 394 kts 251°
2026-04-23 18:09 53.37202 8.72019 20336 ft 396 kts 250°
2026-04-23 18:10 53.36165 8.67734 20799 ft 399 kts 250°
2026-04-23 18:10 53.35113 8.63411 21284 ft 402 kts 250°
2026-04-23 18:10 53.34054 8.59071 21775 ft 404 kts 249°
2026-04-23 18:10 53.32992 8.54715 22233 ft 406 kts 250°
2026-04-23 18:11 53.31938 8.50406 22664 ft 408 kts 250°
2026-04-23 18:11 53.30843 8.45928 23125 ft 410 kts 249°
2026-04-23 18:11 53.29756 8.41500 23554 ft 412 kts 249°
2026-04-23 18:11 53.28662 8.37053 23948 ft 415 kts 249°
2026-04-23 18:12 53.27561 8.32587 24271 ft 417 kts 249°
2026-04-23 18:12 53.26451 8.28093 24601 ft 419 kts 249°
2026-04-23 18:12 53.25387 8.23790 24901 ft 421 kts 249°
2026-04-23 18:12 53.24264 8.19263 25199 ft 423 kts 248°
2026-04-23 18:13 53.23152 8.14788 25568 ft 423 kts 248°
2026-04-23 18:13 53.22020 8.10237 25854 ft 426 kts 248°
2026-04-23 18:13 53.20877 8.05656 26151 ft 428 kts 248°
2026-04-23 18:13 53.19730 8.01070 26435 ft 430 kts 248°
2026-04-23 18:14 53.18577 7.96465 26746 ft 432 kts 247°
2026-04-23 18:14 53.17412 7.91824 27056 ft 434 kts 247°
2026-04-23 18:14 53.16240 7.87166 27345 ft 436 kts 247°
2026-04-23 18:14 53.15063 7.82493 27654 ft 438 kts 247°
2026-04-23 18:15 53.13877 7.77799 27971 ft 440 kts 247°
2026-04-23 18:15 53.12687 7.73097 28247 ft 443 kts 247°
2026-04-23 18:15 53.11486 7.68365 28539 ft 445 kts 247°
2026-04-23 18:15 53.10280 7.63613 28870 ft 446 kts 246°
2026-04-23 18:16 53.09071 7.58867 29229 ft 447 kts 246°
2026-04-23 18:16 53.07850 7.54095 29533 ft 449 kts 246°
2026-04-23 18:16 53.06606 7.49233 29839 ft 451 kts 246°
2026-04-23 18:17 53.04166 7.39717 30402 ft 455 kts 246°
2026-04-23 18:17 53.02916 7.34868 30671 ft 457 kts 246°
2026-04-23 18:17 53.01661 7.29999 30874 ft 460 kts 245°
2026-04-23 18:17 53.00392 7.25096 31153 ft 462 kts 245°
2026-04-23 18:18 52.99120 7.20187 31441 ft 463 kts 245°
2026-04-23 18:18 52.97843 7.15272 31708 ft 465 kts 245°
2026-04-23 18:18 52.96558 7.10332 31991 ft 466 kts 245°
2026-04-23 18:18 52.95381 7.05333 32322 ft 466 kts 251°
2026-04-23 18:19 52.94224 7.00307 32514 ft 467 kts 244°
2026-04-23 18:19 52.92799 6.95472 32789 ft 467 kts 240°
2026-04-23 18:19 52.91292 6.90825 33033 ft 468 kts 239°
2026-04-23 18:19 52.89676 6.86059 33293 ft 470 kts 238°
2026-04-23 18:20 52.88075 6.81420 33569 ft 471 kts 238°
2026-04-23 18:20 52.86435 6.76708 33807 ft 473 kts 238°
2026-04-23 18:20 52.84782 6.71982 34054 ft 475 kts 238°
2026-04-23 18:20 52.83138 6.67290 34296 ft 476 kts 238°
2026-04-23 18:21 52.81468 6.62532 34460 ft 479 kts 238°
2026-04-23 18:21 52.79791 6.57751 34610 ft 482 kts 238°
2026-04-23 18:21 52.78112 6.52964 34882 ft 481 kts 238°
2026-04-23 18:21 52.76451 6.48202 35231 ft 478 kts 238°
2026-04-23 18:22 52.74792 6.43431 35507 ft 477 kts 238°
2026-04-23 18:22 52.73140 6.38681 35768 ft 477 kts 238°
2026-04-23 18:22 52.71491 6.33945 36032 ft 476 kts 238°
2026-04-23 18:22 52.69833 6.29195 36279 ft 476 kts 238°
2026-04-23 18:23 52.68738 6.26056 36450 ft 476 kts 238°
2026-04-23 18:23 52.65521 6.14488 36938 ft 477 kts 245°
2026-04-23 18:24 52.62957 6.04406 37451 ft 475 kts 245°
2026-04-23 18:24 52.61691 5.99454 37705 ft 475 kts 245°
2026-04-23 18:24 52.60412 5.94452 37972 ft 474 kts 245°
2026-04-23 18:25 52.57847 5.84457 38346 ft 474 kts 244°
2026-04-23 18:25 52.55256 5.74412 38391 ft 476 kts 244°
2026-04-23 18:26 52.53112 5.66123 38406 ft 473 kts 244°
2026-04-23 18:26 52.50530 5.56195 38395 ft 472 kts 244°
2026-04-23 18:27 52.47957 5.46336 38403 ft 472 kts 244°
2026-04-23 18:27 52.45358 5.36430 38394 ft 473 kts 244°
2026-04-23 18:28 52.42754 5.26540 38391 ft 473 kts 244°
2026-04-23 18:28 52.40151 5.16698 38395 ft 474 kts 244°
2026-04-23 18:29 52.37513 5.06770 38396 ft 475 kts 243°
2026-04-23 18:29 52.34870 4.96862 38392 ft 474 kts 243°
2026-04-23 18:30 52.32232 4.87016 38402 ft 472 kts 243°
2026-04-23 18:30 52.29615 4.77295 38393 ft 471 kts 243°
2026-04-23 18:31 52.26970 4.67508 38384 ft 471 kts 243°
2026-04-23 18:31 52.24318 4.57735 38384 ft 471 kts 243°
2026-04-23 18:32 52.21658 4.47984 38413 ft 471 kts 243°
2026-04-23 18:32 52.18986 4.38212 38406 ft 472 kts 243°
2026-04-23 18:33 52.16296 4.28432 38416 ft 474 kts 243°
2026-04-23 18:33 52.13614 4.18709 38415 ft 473 kts 243°
2026-04-23 18:34 52.10910 4.08956 38413 ft 472 kts 242°
2026-04-23 18:34 52.08201 3.99220 38412 ft 472 kts 242°
2026-04-23 18:35 52.05487 3.89511 38419 ft 471 kts 242°
2026-04-23 18:35 52.02775 3.79847 38416 ft 469 kts 242°
2026-04-23 18:36 52.00050 3.70183 38429 ft 470 kts 242°
2026-04-23 18:36 51.97332 3.60576 38428 ft 472 kts 242°
2026-04-23 18:37 51.94581 3.50893 38432 ft 473 kts 242°
2026-04-23 18:37 51.91839 3.41284 38447 ft 473 kts 242°
2026-04-23 18:38 51.89094 3.31696 38416 ft 469 kts 241°
2026-04-23 18:38 51.86333 3.22107 38418 ft 469 kts 241°
2026-04-23 18:39 51.84579 3.11880 38444 ft 480 kts 260°
2026-04-23 18:39 51.83877 3.01140 38422 ft 481 kts 260°
2026-04-23 18:40 51.83180 2.90395 38431 ft 480 kts 260°
2026-04-23 18:40 51.82465 2.79748 38423 ft 478 kts 260°
2026-04-23 18:41 51.81750 2.69089 38351 ft 470 kts 259°
2026-04-23 18:41 51.81392 2.63842 37677 ft 469 kts 259°
2026-04-23 18:41 51.81030 2.58616 37167 ft 465 kts 259°
2026-04-23 18:41 51.80672 2.53439 36650 ft 461 kts 259°
2026-04-23 18:42 51.80316 2.48310 36145 ft 457 kts 259°
2026-04-23 18:42 51.79960 2.43227 35647 ft 454 kts 258°
2026-04-23 18:42 51.79603 2.38175 35141 ft 452 kts 258°
2026-04-23 18:42 51.79246 2.33147 34665 ft 448 kts 258°
2026-04-23 18:43 51.78890 2.28158 34164 ft 445 kts 258°
2026-04-23 18:43 51.78536 2.23228 33645 ft 441 kts 258°
2026-04-23 18:43 51.78265 2.18291 33051 ft 439 kts 259°
2026-04-23 18:43 51.77970 2.13470 32571 ft 435 kts 258°
2026-04-23 18:44 51.77658 2.08634 32057 ft 431 kts 259°
2026-04-23 18:44 51.77373 2.03820 31583 ft 428 kts 259°
2026-04-23 18:44 51.77101 1.99052 31094 ft 425 kts 259°
2026-04-23 18:44 51.76818 1.94326 30620 ft 421 kts 259°
2026-04-23 18:45 51.76527 1.89640 30146 ft 417 kts 259°
2026-04-23 18:45 51.76241 1.84991 29588 ft 414 kts 259°
2026-04-23 18:45 51.75961 1.80393 29047 ft 410 kts 259°
2026-04-23 18:45 51.75680 1.75828 28526 ft 407 kts 259°
2026-04-23 18:46 51.75400 1.71347 28006 ft 404 kts 259°
2026-04-23 18:46 51.75118 1.66863 27493 ft 401 kts 259°
2026-04-23 18:46 51.74837 1.62402 26981 ft 398 kts 260°
2026-04-23 18:46 51.74557 1.57979 26480 ft 395 kts 260°
2026-04-23 18:47 51.74277 1.53589 25984 ft 392 kts 260°
2026-04-23 18:47 51.73998 1.49234 25498 ft 389 kts 260°
2026-04-23 18:47 51.73719 1.44899 25023 ft 386 kts 260°
2026-04-23 18:47 51.73440 1.40600 24550 ft 383 kts 260°
2026-04-23 18:48 51.73162 1.36341 24085 ft 380 kts 261°
2026-04-23 18:48 51.72885 1.32112 23551 ft 378 kts 261°
2026-04-23 18:48 51.72612 1.27964 23019 ft 375 kts 261°
2026-04-23 18:48 51.72333 1.23742 22486 ft 372 kts 261°
2026-04-23 18:49 51.72060 1.19665 21965 ft 369 kts 261°
2026-04-23 18:49 51.71787 1.15575 21446 ft 366 kts 261°
2026-04-23 18:49 51.71512 1.11503 20920 ft 363 kts 261°
2026-04-23 18:49 51.71239 1.07466 20390 ft 361 kts 261°
2026-04-23 18:50 51.71058 1.04804 20064 ft 359 kts 261°
2026-04-23 18:50 51.70695 0.99477 19395 ft 356 kts 261°
2026-04-23 18:50 51.70422 0.95535 18914 ft 353 kts 262°
2026-04-23 18:50 51.70149 0.91575 18257 ft 354 kts 262°
2026-04-23 18:51 51.69876 0.87647 17641 ft 354 kts 262°
2026-04-23 18:51 51.69601 0.83698 17125 ft 351 kts 263°
2026-04-23 18:51 51.69328 0.79807 16539 ft 350 kts 263°
2026-04-23 18:51 51.69054 0.75919 16012 ft 347 kts 263°
2026-04-23 18:52 51.68783 0.72107 15455 ft 346 kts 263°
2026-04-23 18:52 51.68511 0.68254 14904 ft 345 kts 263°
2026-04-23 18:52 51.68236 0.64401 14361 ft 345 kts 263°
2026-04-23 18:52 51.67959 0.60566 13795 ft 343 kts 263°
2026-04-23 18:53 51.67685 0.56755 13277 ft 339 kts 263°
2026-04-23 18:53 51.67418 0.53070 13142 ft 323 kts 263°
2026-04-23 18:53 51.67158 0.49512 12659 ft 321 kts 263°
2026-04-23 18:53 51.66899 0.45959 12182 ft 318 kts 263°
2026-04-23 18:54 51.66640 0.42427 11718 ft 315 kts 263°
2026-04-23 18:54 51.66382 0.38933 11259 ft 313 kts 263°
2026-04-23 18:54 51.66127 0.35479 10786 ft 309 kts 263°
2026-04-23 18:54 51.65871 0.32048 10338 ft 307 kts 263°
2026-04-23 18:55 51.65623 0.28721 9962 ft 300 kts 263°
2026-04-23 18:55 51.65378 0.25431 9512 ft 302 kts 263°
2026-04-23 18:55 51.65124 0.22062 8879 ft 305 kts 263°
2026-04-23 18:55 51.64865 0.18631 8252 ft 306 kts 263°
2026-04-23 18:56 51.64693 0.16364 7996 ft 303 kts 263°
2026-04-23 18:56 51.64419 0.12020 8000 ft 294 kts 265°
2026-04-23 18:56 51.64265 0.08836 7989 ft 275 kts 266°
2026-04-23 18:56 51.64131 0.05884 7987 ft 264 kts 266°
2026-04-23 18:57 51.63998 0.02880 7978 ft 264 kts 266°
2026-04-23 18:57 51.63864 -0.00065 8000 ft 264 kts 266°
2026-04-23 18:57 51.63733 -0.03000 8021 ft 262 kts 265°
2026-04-23 18:57 51.63607 -0.05931 8036 ft 264 kts 266°
2026-04-23 18:58 51.63481 -0.08867 8036 ft 262 kts 266°
2026-04-23 18:58 51.63356 -0.11794 8037 ft 263 kts 266°
2026-04-23 18:58 51.63233 -0.14741 8048 ft 264 kts 266°
2026-04-23 18:58 51.63106 -0.17693 8046 ft 264 kts 266°
2026-04-23 18:59 51.62981 -0.20636 8049 ft 264 kts 266°
2026-04-23 18:59 51.62855 -0.23551 8049 ft 264 kts 266°
2026-04-23 18:59 51.62726 -0.26503 8051 ft 264 kts 266°
2026-04-23 18:59 51.62597 -0.29449 8056 ft 263 kts 266°
2026-04-23 19:00 51.62467 -0.32386 8052 ft 263 kts 266°
2026-04-23 19:00 51.62338 -0.35312 7974 ft 263 kts 265°
2026-04-23 19:00 51.62213 -0.38260 7967 ft 263 kts 266°
2026-04-23 19:00 51.62086 -0.41175 7973 ft 264 kts 266°
2026-04-23 19:01 51.61955 -0.44146 7974 ft 263 kts 266°
2026-04-23 19:01 51.61827 -0.47043 7972 ft 263 kts 265°
2026-04-23 19:01 51.61697 -0.49988 7975 ft 264 kts 266°
2026-04-23 19:01 51.61566 -0.52932 7972 ft 264 kts 266°
2026-04-23 19:02 51.61477 -0.54928 7975 ft 263 kts 266°
2026-04-23 19:02 51.61305 -0.58784 7620 ft 262 kts 265°
2026-04-23 19:02 51.61179 -0.61704 7257 ft 260 kts 266°
2026-04-23 19:02 51.61052 -0.64597 6907 ft 258 kts 265°
2026-04-23 19:03 51.60929 -0.67473 6520 ft 258 kts 265°
2026-04-23 19:03 51.60810 -0.70338 6189 ft 255 kts 266°
2026-04-23 19:03 51.60689 -0.73186 5782 ft 256 kts 265°
2026-04-23 19:03 51.60569 -0.76031 5522 ft 250 kts 265°
2026-04-23 19:04 51.60458 -0.78764 5149 ft 249 kts 266°
2026-04-23 19:04 51.60337 -0.81683 4111 ft 274 kts 265°
2026-04-23 19:04 51.60210 -0.84787 3281 ft 275 kts 265°
2026-04-23 19:04 51.60085 -0.87824 2989 ft 275 kts 266°
2026-04-23 19:05 51.59954 -0.90921 2997 ft 281 kts 265°
2026-04-23 19:05 51.59628 -0.93983 2968 ft 278 kts 244°
2026-04-23 19:05 51.58412 -0.96300 2981 ft 269 kts 206°
2026-04-23 19:05 51.56694 -0.97348 2998 ft 264 kts 189°
2026-04-23 19:06 51.54909 -0.97975 2983 ft 261 kts 186°
2026-04-23 19:06 51.53109 -0.98522 2986 ft 265 kts 185°
2026-04-23 19:06 51.51305 -0.99064 2987 ft 262 kts 184°
2026-04-23 19:06 51.49547 -0.98903 2973 ft 250 kts 153°
2026-04-23 19:07 51.48198 -0.97274 2983 ft 242 kts 128°
2026-04-23 19:07 51.47485 -0.94927 2986 ft 235 kts 95°
2026-04-23 19:07 51.47443 -0.92415 2972 ft 214 kts 90°
2026-04-23 19:07 51.47450 -0.90161 2982 ft 191 kts 89°
2026-04-23 19:08 51.47463 -0.88139 2976 ft 172 kts 90°
2026-04-23 19:08 51.47476 -0.86313 2967 ft 154 kts 90°
2026-04-23 19:08 51.47488 -0.84607 2964 ft 153 kts 90°
2026-04-23 19:08 51.47498 -0.82927 2968 ft 150 kts 89°
2026-04-23 19:09 51.47508 -0.81296 2968 ft 143 kts 89°
2026-04-23 19:09 51.47520 -0.79653 2976 ft 148 kts 91°
2026-04-23 19:09 51.47526 -0.78003 2973 ft 151 kts 90°
2026-04-23 19:09 51.47548 -0.76314 2972 ft 153 kts 89°
2026-04-23 19:10 51.47559 -0.74630 2967 ft 150 kts 89°
2026-04-23 19:10 51.47570 -0.72958 2970 ft 150 kts 90°
2026-04-23 19:10 51.47581 -0.71281 2893 ft 150 kts 90°
2026-04-23 19:10 51.47591 -0.69621 2701 ft 149 kts 89°
2026-04-23 19:11 51.47602 -0.67967 2501 ft 145 kts 89°
2026-04-23 19:11 51.47611 -0.66376 2309 ft 142 kts 89°
2026-04-23 19:11 51.47621 -0.64781 2120 ft 143 kts 88°
2026-04-23 19:11 51.47632 -0.63197 1919 ft 141 kts 88°
2026-04-23 19:12 51.47638 -0.62156 1799 ft 141 kts 89°
2026-04-23 19:12 51.47649 -0.60570 1597 ft 140 kts 88°
2026-04-23 19:12 51.47658 -0.59027 1396 ft 134 kts 88°
2026-04-23 19:12 51.47671 -0.57568 1238 ft 129 kts 88°
2026-04-23 19:13 51.47676 -0.56332 1078 ft 128 kts 86°
2026-04-23 19:13 51.47717 -0.54860 903 ft 136 kts 85°
2026-04-23 19:13 51.47654 -0.53379 654 ft 139 kts 102°
2026-04-23 19:13 51.46812 -0.51034 1447 ft 294 kts 121°